Location: Newark
(44.3248°N, 23.7839°E)
Time: 23:09:06
(UTC+00:00)

PCSat - Pass Details

Date: 15 April 2024
Orbit: 783 x 792 km, 67.1° (Epoch: 21 May)

Event Time Altitude Azimuth Distance (km) Brightness Sun altitude
Rises 17:40:38 0° 165° (SSE) 3,261 12.4 -6.1°
Reaches altitude 10° 17:43:45 10° 146° (SE) 2,340 11.5 -6.6°
Maximum altitude 17:47:15 18° 105° (ESE) 1,861 10.9 -7.2°
Drops below altitude 10° 17:50:45 10° 64° (ENE) 2,356 11.6 -7.8°
Sets 17:53:54 0° 46° (NE) 3,292 12.5 -8.3°
